FW5669 Weather Reports


time (UTC)temp
C
wind
direction
speed
KPH
gust
KPH
rain 1hr
cm
rain 24hr
cm
rain mn
cm
humidity
%
barometer
mb
20260509024603 22 260 0.0 0.0 0.00 0.00 0.00 64 1015.6
20260509023107 23 260 0.0 0.0 0.00 0.00 0.00 61 1015.6
20260509023000 23 260 0.0 0.0 0.00 0.00 0.00 61 1015.6
20260509021601 23 260 0.0 0.0 0.00 0.00 0.00 57 1015.5
20260509020002 24 260 0.0 1.6 0.00 0.00 0.00 53 1015.6
20260509014505 24 260 0.0 1.6 0.00 0.00 0.00 52 1015.6
20260509013002 25 232 0.0 3.2 0.00 0.00 0.00 49 1015.6
20260509011502 25 200 0.0 3.2 0.00 0.00 0.00 51 1015.7
20260509010003 25 243 0.0 4.8 0.00 0.00 0.00 52 1015.8
20260509004608 25 195 1.6 4.8 0.00 0.00 0.00 53 1015.8
20260509003003 25 200 1.6 4.8 0.00 0.00 0.00 55 1016.1
20260509001601 25 208 1.6 4.8 0.00 0.00 0.00 54 1016.2
20260509000100 25 229 1.6 4.8 0.00 0.00 0.00 53 1016.1
20260509000004 25 244 1.6 4.8 0.00 0.00 0.00 53 1016.1
20260508234501 26 168 3.2 6.4 0.00 0.00 0.00 54 1016.2
20260508233004 26 254 3.2 6.4 0.00 0.00 0.00 55 1016.3
20260508231503 26 202 1.6 4.8 0.00 0.00 0.00 52 1016.4
20260508230002 26 278 3.2 6.4 0.00 0.00 0.00 55 1016.5
20260508224603 26 191 1.6 6.4 0.00 0.00 0.00 55 1016.8
20260508223100 26 283 1.6 6.4 0.00 0.00 0.00 55 1017.1
20260508223002 26 199 1.6 4.8 0.00 0.00 0.00 58 1017.2
20260508221601 26 184 1.6 4.8 0.00 0.00 0.00 57 1017.2
20260508220100 25 247 1.6 4.8 0.00 0.00 0.00 58 1017.6
20260508220002 25 179 3.2 4.8 0.00 0.00 0.00 57 1017.5
20260508214600 25 166 0.0 6.4 0.00 0.00 0.00 60 1017.8
20260508213100 25 190 1.6 6.4 0.00 0.00 0.00 59 1018.0
20260508211600 25 206 3.2 6.4 0.00 0.00 0.00 60 1018.0
20260508204601 24 249 3.2 12.9 0.00 0.00 0.00 63 1018.2
20260508203107 23 195 0.0 8.0 0.00 0.00 0.00 62 1018.3
20260508201606 23 185 3.2 9.7 0.00 0.00 0.00 60 1018.5
20260508200004 23 273 1.6 8.0 0.00 0.00 0.00 62 1018.5
20260508194601 23 217 1.6 6.4 0.00 0.00 0.00 63 1018.7
20260508194501 23 179 1.6 6.4 0.00 0.00 0.00 62 1018.7
20260508193105 23 212 3.2 8.0 0.00 0.00 0.00 64 1018.7
20260508191501 22 183 4.8 12.9 0.00 0.00 0.00 65 1018.8
20260508190007 22 242 1.6 6.4 0.00 0.00 0.00 66 1018.9
20260508184600 22 213 1.6 6.4 0.00 0.00 0.00 67 1018.9
20260508183101 22 239 1.6 4.8 0.00 0.00 0.00 63 1018.8
20260508181609 22 291 1.6 4.8 0.00 0.00 0.00 65 1018.8
20260508181500 22 203 1.6 4.8 0.00 0.00 0.00 65 1018.8
20260508180002 22 229 1.6 4.8 0.00 0.00 0.00 64 1018.7
20260508174609 21 206 1.6 6.4 0.00 0.00 0.00 66 1018.7
20260508173101 21 233 1.6 4.8 0.00 0.00 0.00 68 1018.9
20260508171500 21 229 1.6 4.8 0.00 0.00 0.00 64 1018.8
20260508170004 22 238 1.6 4.8 0.00 0.00 0.00 60 1018.7
20260508164601 21 119 0.0 4.8 0.00 0.00 0.00 54 1018.4
20260508164501 21 119 1.6 4.8 0.00 0.00 0.00 54 1018.4
20260508163101 21 188 0.0 3.2 0.00 0.00 0.00 56 1018.5
20260508161600 20 283 0.0 3.2 0.00 0.00 0.00 56 1018.6
20260508160002 20 256 0.0 3.2 0.00 0.00 0.00 61 1018.6
20260508154606 18 294 0.0 1.6 0.00 0.00 0.00 64 1018.7
20260508153101 18 287 0.0 3.2 0.00 0.00 0.00 65 1018.6
20260508151601 18 60 0.0 1.6 0.00 0.00 0.00 66 1018.4
20260508150100 17 27 0.0 4.8 0.00 0.00 0.00 66 1018.3
20260508144600 16 48 0.0 3.2 0.00 0.00 0.00 71 1018.3
20260508143103 13 59 0.0 3.2 0.00 0.00 0.00 79 1018.3
20260508143001 13 352 0.0 3.2 0.00 0.00 0.00 79 1018.2
20260508141621 12 18 0.0 1.6 0.00 0.00 0.00 89 1018.2
20260508134619 10 10 0.0 0.0 0.00 0.00 0.00 93 1018.0
20260508133102 10 354 0.0 0.0 0.00 0.00 0.00 92 1018.1
20260508131559 11 354 0.0 0.0 0.00 0.00 0.00 92 1017.8
20260508130100 11 354 0.0 0.0 0.00 0.00 0.00 93 1017.6
20260508130000 11 354 0.0 0.0 0.00 0.00 0.00 93 1017.6
20260508124603 11 354 0.0 0.0 0.00 0.00 0.00 93 1017.6
20260508123100 11 354 0.0 0.0 0.00 0.00 0.00 93 1017.7
20260508121603 11 354 0.0 0.0 0.00 0.00 0.00 93 1017.7
20260508120100 11 354 0.0 0.0 0.00 0.00 0.00 93 1017.5
20260508120004 11 354 0.0 0.0 0.00 0.00 0.00 93 1017.5
20260508114600 11 354 0.0 0.0 0.00 0.00 0.00 93 1017.5
20260508113115 12 349 0.0 0.0 0.00 0.00 0.00 92 1017.5
20260508111604 12 349 0.0 0.0 0.00 0.00 0.00 92 1017.5
20260508110002 12 349 0.0 0.0 0.00 0.00 0.00 92 1017.3
20260508104601 12 349 0.0 0.0 0.00 0.00 0.00 92 1017.4
20260508103105 13 349 0.0 3.2 0.00 0.00 0.00 92 1017.4
20260508101600 13 39 1.6 8.0 0.00 0.00 0.00 93 1017.4
20260508100100 13 26 0.0 0.0 0.00 0.00 0.00 92 1017.4
20260508100003 13 26 0.0 0.0 0.00 0.00 0.00 92 1017.5
20260508094603 13 34 0.0 0.0 0.00 0.00 0.00 93 1017.6
20260508093059 13 35 0.0 1.6 0.00 0.00 0.00 92 1017.7
20260508091559 13 16 0.0 1.6 0.00 0.00 0.00 92 1017.8
20260508090106 13 16 0.0 1.6 0.00 0.00 0.00 92 1017.7
20260508090003 13 16 0.0 1.6 0.00 0.00 0.00 92 1017.7
20260508084600 14 16 0.0 1.6 0.00 0.00 0.00 92 1017.8
20260508083117 14 39 0.0 1.6 0.00 0.00 0.00 92 1017.6
20260508081605 14 39 0.0 3.2 0.00 0.00 0.00 92 1017.6
20260508080001 14 39 0.0 1.6 0.00 0.00 0.00 92 1017.7
20260508074603 14 39 0.0 3.2 0.00 0.00 0.00 91 1017.7
20260508073100 15 39 0.0 1.6 0.00 0.00 0.00 90 1017.7
20260508071601 15 39 0.0 0.0 0.00 0.00 0.00 91 1017.7
20260508070100 16 39 0.0 0.0 0.00 0.00 0.00 90 1017.5
20260508070005 16 39 0.0 0.0 0.00 0.00 0.00 90 1017.5
20260508064502 15 55 0.0 1.6 0.00 0.00 0.00 92 1017.4
20260508063002 15 187 0.0 0.0 0.00 0.00 0.00 91 1017.5
20260508061503 15 187 0.0 0.0 0.00 0.00 0.00 90 1017.6
20260508060002 16 187 0.0 1.6 0.00 0.00 0.00 90 1017.6
20260508054501 16 187 0.0 1.6 0.00 0.00 0.00 90 1017.6
20260508053002 16 187 0.0 0.0 0.00 0.00 0.00 89 1017.8
20260508051503 16 187 0.0 3.2 0.00 0.00 0.00 89 1017.8
20260508050100 16 187 0.0 3.2 0.00 0.00 0.00 89 1017.8
20260508050001 16 187 0.0 3.2 0.00 0.00 0.00 88 1017.7
20260508044612 17 187 0.0 0.0 0.00 0.00 0.00 88 1017.7
20260508043001 17 187 0.0 0.0 0.00 0.00 0.00 87 1017.5
20260508041600 17 187 0.0 1.6 0.00 0.00 0.00 86 1017.4
20260508040101 18 187 0.0 1.6 0.00 0.00 0.00 84 1017.4
20260508040004 18 187 0.0 1.6 0.00 0.00 0.00 84 1017.4
20260508034502 18 187 0.0 0.0 0.00 0.00 0.00 82 1017.2
20260508033001 19 187 0.0 1.6 0.00 0.00 0.00 80 1017.1
20260508031503 20 187 0.0 1.6 0.00 0.00 0.00 76 1017.0
20260508030002 21 187 0.0 0.0 0.00 0.00 0.00 73 1017.0